Find Kosmos-2360

NORAD ID: 25406 Int'l Des: 1998-045 Owner: GRUR Country: RU operational
LEOCIRCULAR

Current View

Loading 3D Globe...

About Kosmos-2360

Description loading...

Upcoming Passes

Passes for default location (London). Set your location on the main map for personalized predictions.

Altitude History

Loading altitude history...

Two-Line Element Set

1 25406U 98045A 26149.53456297 -.00000280 00000-0 -12478-3 0 9993
2 25406 70.7326 317.5143 0007308 3.3612 356.7555 14.12429548435403
Epoch: May 29, 2026 • Age: 18 hours

Current Status

Altitude 858.4 km
Velocity 7.42 km/s
Sub-Earth Point 2.77°N, 147.26°E
Launch Date Jul 28, 1998
Age 27.8 years
Type other

Technical Details

Classification Payload
Mass 3250.00 kg
Dry Mass 3250.00 kg
Total Mass 3250.00 kg
Length 4.50 m
Diameter 1.40 m
Span 22.70 m
Shape Cyl + 2 Pan + Ant
Manufacturer YUZHUA
Bus Type Tselina-2
Phase Status Unknown Transfer Status
Owner/State GRUR/RU

Most Searched